Regional Weather Roundup
Issued by NWS

Home | Current Version | Previous Version | Graphics & Text | Print | Product List | Glossary On
Versions: 1 2 3 4 5 6 7 8 9 10 11 12 13 14 15 16 17 18 19 20 21 22 23 24 25 26 27 28 29 30 31 32 33 34 35 36 37 38 39 40 41 42 43 44 45 46 47 48 49 50
000
ASUS43 KLOT 131303
RWRIL

ILLINOIS REGIONAL WEATHER ROUNDUP
NATIONAL WEATHER SERVICE CHICAGO/ROMEOVILLE IL
700 AM CST WED DEC 13 2017

NOTE: "FAIR" INDICATES FEW OR NO CLOUDS BELOW 12,000 FEET WITH NO
SIGNIFICANT WEATHER AND/OR OBSTRUCTIONS TO VISIBILITY.

* THESE STATIONS ARE NOT UNDER NWS QUALITY CONTROL. THEY ALSO MAY NOT
  REPORT WEATHER SUCH AS PRECIPITATION OR FOG.

ILZ001-002-007-009-015-016-024-131400-
NORTHWEST ILLINOIS

CITY           SKY/WX    TMP DP  RH WIND       PRES   REMARKS
MOLINE         CLOUDY    32  21  64 SW16G23   29.48F WCI  21
STERLING*      CLOUDY    29  21  72 S9        29.50F WCI  20
SAVANNA*       CLOUDY    28  22  76 S10       29.48F WCI  19
$$

ILZ003-004-008-010-011-017-018-131400-
NORTH CENTRAL ILLINOIS

CITY           SKY/WX    TMP DP  RH WIND       PRES   REMARKS
ROCKFORD       CLOUDY    26  17  68 S17       29.52F WCI  13
FREEPORT*      CLOUDY    27  20  73 S25G35    29.48F WCI  12
ROCHELLE*      CLOUDY    25  17  73 S22G28    29.52F WCI  10
DE KALB*       CLOUDY    25  16  69 S21G26    29.56F WCI  11
PERU*          CLOUDY    27  15  61 S17       29.58F WCI  14
$$

ILZ005-006-012>014-019>023-131400-
NORTHEAST ILLINOIS

CITY           SKY/WX    TMP DP  RH WIND       PRES   REMARKS
CHICAGO-OHARE  CLOUDY    26  12  55 S12       29.62F WCI  16
CHICAGO-MIDWAY CLOUDY    27  11  51 S12       29.65F WCI  17
AURORA         CLOUDY    26  15  63 SE14      29.61F WCI  14
LANSING*       CLOUDY    26  12  57 S13G18    29.68F WCI  14
JOLIET*        CLOUDY    29  13  50 S9G20     29.65F WCI  21
WAUKEGAN       CLOUDY    24  12  60 S13G22    29.58F WCI  12
DUPAGE AIRPORT CLOUDY    25  14  63 S13       29.60F WCI  14
WHEELING       CLOUDY    26  12  55 S16       29.61F WCI  14
NORTHERLY ISL    N/A     26  11  52 S10         N/A  WCI  16
$$

LMZ740>746-131400-
SOUTHERN LAKE MICHIGAN

STATION/POSITION SKY/WX   TEMP    WIND        PRES    VSBY  WAVE
                          AIR SEA DIR/SP/G                  HT/PER
                          (F)     (DEG/KT/KT) (MB)    (MI)  (FT/S)
HARRISON CRIB              27     180/ 24/ 27   N/A
BURNHAM HARBOR             26     180/  9/ 12   N/A
CALUMET HARBOR             25     160/ 11/ 15 1004.6F
BURNS HARBOR               24     170/ 12/ 20 1006.4F
MICHIGAN CITY              22     150/ 13/ 16   N/A
$$

ILZ025>027-034>036-040-047-049-050-058-095>099-131400-
WEST-CENTRAL ILLINOIS

CITY           SKY/WX    TMP DP  RH WIND       PRES   REMARKS
QUINCY         CLEAR     33  21  61 S23       29.59F WCI  21
GALESBURG*     CLOUDY    31  22  69 S15       29.53F WCI  20
MACOMB*        CLOUDY    31  21  67 S13G20    29.59F WCI  21
JACKSONVILLE*  CLOUDY    29  16  59 S14G21    29.66F WCI  18
PITTSFIELD*    CLOUDY    31  20  64 S12       29.65F WCI  21
$$

ILZ028>032-037-038-041>044-048-051>054-059>061-131400-
CENTRAL ILLINOIS

CITY           SKY/WX    TMP DP  RH WIND       PRES   REMARKS
BLOOMINGTON    CLOUDY    25  15  66 S17       29.65F WCI  12
DECATUR        CLOUDY    26  13  57 S15       29.71F WCI  14
PEORIA         PTCLDY    28  17  63 S14       29.61F WCI  17
LACON*         CLOUDY    31  18  58 S14       29.57F WCI  21
LINCOLN*       CLOUDY    28  16  61 S14       29.66F WCI  17
SPRINGFIELD    PTCLDY    31  18  58 S20G31    29.66F WCI  19
TAYLORVILLE    CLOUDY    28  15  59 S15       29.73F WCI  16
$$

ILZ033-039-045-046-055>057-062-063-131400-
EAST-CENTRAL ILLINOIS

CITY           SKY/WX    TMP DP  RH WIND       PRES   REMARKS
CHAMPAIGN      MOCLDY    26  11  52 S16       29.73F WCI  14
DANVILLE*      CLOUDY    25  10  51 S12       29.74F WCI  15
MATTOON        CLOUDY    26  13  57 S14       29.77F WCI  14
$$

ILZ079-100>102-131400-
SOUTHWEST ILLINOIS

CITY           SKY/WX    TMP DP  RH WIND       PRES   REMARKS
ALTON          PTCLDY    28  18  64 S17       29.76F WCI  16
BELLEVILLE     CLEAR     28  16  59 S5        29.78F WCI  23
CAHOKIA*       CLEAR     32  17  54 S9        29.77F WCI  24
SPARTA*        CLEAR     28  15  58 S13G18    29.83F WCI  18
$$

ILZ064>066-069>071-074>076-080>082-084>086-088>090-092>094-131400-
SOUTH-CENTRAL ILLINOIS

CITY           SKY/WX    TMP DP  RH WIND       PRES   REMARKS
CARBONDALE     CLEAR     28  14  55 S12       29.88F WCI  18
CAIRO*         CLEAR     29  18  64 S9        29.95F WCI  20
EFFINGHAM*     CLEAR     27  13  56 S9        29.83F WCI  17
MARION         CLEAR     27  16  63 S12       29.91F WCI  16
MT. VERNON     CLEAR     26  17  68 S10       29.85F WCI  16
CENTRALIA*     CLEAR     28  15  58 S13       29.81F WCI  18
SALEM*         CLEAR     29  13  51 S12       29.82F WCI  19
METROPOLIS*    CLEAR     28  13  52 S6        29.96F WCI  22
$$

ILZ067-068-072-073-078-083-087-091-131400-
SOUTHEAST ILLINOIS

CITY           SKY/WX    TMP DP  RH WIND       PRES   REMARKS
LAWRENCEVILLE  CLOUDY    25  16  68 S6        29.88F WCI  18
FLORA*         CLEAR     28  14  56 S12       29.84F WCI  18
HARRISBURG*    CLEAR     27  15  60 S5        29.91F WCI  22
ROBINSON*      CLOUDY    25  13  60 S9        29.87S WCI  15
CARMI*         CLOUDY    26  17  66 S14       29.89F WCI  15
$$

ABBREVIATIONS USED IN REMARKS
   TC - TEMPERATURE IN CELSIUS
  WCI - WIND CHILL INDEX
   HX - HEAT INDEX
  VSB - VISIBILITY
$$





USA.gov is the U.S. government's official web portal to all federal, state and local government web resources and services.